Dublin, Ireland

9:32 AM IST on October 01, 2016 (GMT +0100)
Dublin International

Weather History for EIDW - August, 2012

Change the Weather History Date:

Saturday, August 18, 2012

  Actual Average Record
Temperature  
Mean Temperature 66 °F -  
Max Temperature 71 °F 64 °F 73 °F (1996)
Min Temperature 60 °F 51 °F 42 °F (2011)
Growing Degree Days 16 (Base 50)    
Moisture  
Dew Point 57 °F    
Average Humidity 75    
Maximum Humidity 94    
Minimum Humidity 53    
Precipitation  
Precipitation 0.00 in - - ()
Sea Level Pressure  
Sea Level Pressure 29.83 in    
Wind  
Wind Speed 7 mph ()    
Max Wind Speed 16 mph    
Max Gust Speed -    
Visibility 6.5 miles    
Events      
Averages and records for this station are not official NWS values.
T = Trace of Precipitation, MM = Missing Value Source: Averaged Metar Reports

Daily Weather History Graph

Daily Weather History Graph

Search for Another Location

Airport or City:

Trip Planner

Search our weather history database for the weather conditions in past years. The results will help you decide how hot, cold, wet, or windy it might be!

Date:

Astronomy

Aug. 18, 2012 Rise Set
Actual Time 6:10 AM IST 8:46 PM IST
Civil Twilight 5:31 AM IST 9:24 PM IST
Nautical Twilight 4:41 AM IST 10:14 PM IST
Astronomical Twilight 3:39 AM IST 11:15 PM IST
Moon 7:20 AM IST (8/18) 8:31 PM IST (8/18)
Length of Visible Light 15h 53m
Length of Day
14h 35m
New Moon, 1% of the Moon is Illuminated
Aug 18
New Moon
Aug 24
First Quarter
Aug 31
Full
Sep 8
Last Quarter
Sep 16
New

Hourly Weather History & Observations

Time (IST) Temp. Dew Point Humidity Pressure Visibility Wind Dir Wind Speed Gust Speed Precip Events Conditions
12:00 AM 66.2 °F 60.8 °F 83% 29.71 in 6.2 mi Variable 2.3 mph - N/A   Mostly Cloudy
12:30 AM 66.2 °F 60.8 °F 83% 29.71 in 6.2 mi SE 4.6 mph - N/A   Mostly Cloudy
1:00 AM 64 °F 61 °F 85% 29.72 in 19 mi ESE 4.5 mph - -   Mostly Cloudy
1:00 AM 64.4 °F 60.8 °F 88% 29.71 in 6.2 mi ESE 3.5 mph - N/A   Mostly Cloudy
1:30 AM 62.6 °F 60.8 °F 94% 29.71 in 6.2 mi Variable 3.5 mph - N/A   Mostly Cloudy
2:00 AM 62.6 °F 60.8 °F 94% 29.71 in 6.2 mi SSE 2.3 mph - N/A   Mostly Cloudy
2:30 AM 64.4 °F 60.8 °F 88% 29.71 in 6.2 mi South 5.8 mph - N/A   Mostly Cloudy
3:00 AM 62.6 °F 59.0 °F 88% 29.71 in 6.2 mi South 5.8 mph - N/A   Mostly Cloudy
3:30 AM 62.6 °F 60.8 °F 94% 29.71 in 6.2 mi SSE 4.6 mph - N/A   Mostly Cloudy
4:00 AM 62.6 °F 60.8 °F 94% 29.71 in 6.2 mi Variable 2.3 mph - N/A   Mostly Cloudy
4:30 AM 62.6 °F 60.8 °F 94% 29.71 in 6.2 mi SSW 5.8 mph - N/A   Mostly Cloudy
5:00 AM 62.6 °F 60.8 °F 94% 29.71 in 6.2 mi SW 5.8 mph - N/A   Mostly Cloudy
5:30 AM 60.8 °F 59.0 °F 94% 29.71 in 6.2 mi SSW 8.1 mph - N/A   Mostly Cloudy
6:00 AM 62.6 °F 59.0 °F 88% 29.74 in 6.2 mi SSW 6.9 mph - N/A   Mostly Cloudy
6:30 AM 62.6 °F 59.0 °F 88% 29.74 in 6.2 mi WSW 10.4 mph - N/A   Mostly Cloudy
7:00 AM 62 °F 58 °F 84% 29.75 in 31 mi SW 11.2 mph - -   Mostly Cloudy
7:00 AM 62.6 °F 59.0 °F 88% 29.74 in 6.2 mi SW 12.7 mph - N/A   Mostly Cloudy
7:30 AM 60.8 °F 59.0 °F 94% 29.74 in 6.2 mi SW 10.4 mph - N/A   Mostly Cloudy
8:00 AM 60.8 °F 59.0 °F 94% 29.77 in 6.2 mi WSW 11.5 mph - N/A   Mostly Cloudy
8:30 AM 60.8 °F 57.2 °F 88% 29.77 in 6.2 mi WSW 12.7 mph - N/A   Scattered Clouds
9:00 AM 60.8 °F 57.2 °F 88% 29.77 in 6.2 mi SW 16.1 mph - N/A   Scattered Clouds
9:30 AM 62.6 °F 57.2 °F 82% 29.80 in 6.2 mi SW 12.7 mph - N/A   Scattered Clouds
10:00 AM 64.4 °F 57.2 °F 77% 29.80 in 6.2 mi WSW 16.1 mph - N/A   Scattered Clouds
10:30 AM 64.4 °F 55.4 °F 73% 29.83 in 6.2 mi West 15.0 mph - N/A   Scattered Clouds
11:00 AM 64.4 °F 53.6 °F 68% 29.83 in 6.2 mi WSW 13.8 mph - N/A   Scattered Clouds
11:30 AM 64.4 °F 53.6 °F 68% 29.83 in 6.2 mi WSW 10.4 mph - N/A   Mostly Cloudy
12:00 PM 64.4 °F 53.6 °F 68% 29.86 in 6.2 mi SW 9.2 mph - N/A   Mostly Cloudy
12:30 PM 64.4 °F 53.6 °F 68% 29.86 in 6.2 mi SW 11.5 mph - N/A   Mostly Cloudy
1:00 PM 66 °F 55 °F 59% 29.87 in 31 mi SW 11.2 mph - -   Scattered Clouds
1:00 PM 66.2 °F 53.6 °F 64% 29.86 in 6.2 mi SW 9.2 mph - N/A   Mostly Cloudy
1:30 PM 68.0 °F 53.6 °F 60% 29.86 in 6.2 mi WSW 9.2 mph - N/A   Scattered Clouds
2:00 PM 68.0 °F 55.4 °F 64% 29.86 in 6.2 mi SW 12.7 mph - N/A   Partly Cloudy
2:30 PM 69.8 °F 55.4 °F 60% 29.89 in 6.2 mi SSW 11.5 mph - N/A   Partly Cloudy
3:00 PM 69.8 °F 55.4 °F 60% 29.89 in 6.2 mi South 10.4 mph - N/A   Partly Cloudy
3:30 PM 71.6 °F 55.4 °F 57% 29.89 in 6.2 mi SSE 6.9 mph - N/A   Partly Cloudy
4:00 PM 69.8 °F 55.4 °F 60% 29.89 in 6.2 mi SW 10.4 mph - N/A   Partly Cloudy
4:30 PM 69.8 °F 53.6 °F 56% 29.89 in 6.2 mi SW 9.2 mph - N/A   Scattered Clouds
5:00 PM 69.8 °F 55.4 °F 60% 29.89 in 6.2 mi WSW 10.4 mph - N/A   Scattered Clouds
5:30 PM 69.8 °F 53.6 °F 56% 29.89 in 6.2 mi SSW 11.5 mph - N/A   Mostly Cloudy
6:00 PM 68.0 °F 53.6 °F 60% 29.89 in 6.2 mi SSW 9.2 mph - N/A   Mostly Cloudy
6:30 PM 69.8 °F 55.4 °F 60% 29.89 in 6.2 mi SSW 11.5 mph - N/A   Mostly Cloudy
7:00 PM 68 °F 55 °F 53% 29.91 in 37 mi SSW 11.2 mph - -   Scattered Clouds
7:00 PM 68.0 °F 55.4 °F 64% 29.92 in 6.2 mi SSW 11.5 mph - N/A   Mostly Cloudy
7:30 PM 68.0 °F 55.4 °F 64% 29.92 in 6.2 mi SSW 9.2 mph - N/A   Mostly Cloudy
8:00 PM 66.2 °F 53.6 °F 64% 29.92 in 6.2 mi SSW 10.4 mph - N/A   Mostly Cloudy
8:30 PM 64.4 °F 55.4 °F 73% 29.92 in 6.2 mi SSW 11.5 mph - N/A   Mostly Cloudy
9:00 PM 64.4 °F 53.6 °F 68% 29.95 in 6.2 mi SSW 9.2 mph - N/A   Mostly Cloudy
9:30 PM 62.6 °F 53.6 °F 72% 29.95 in 6.2 mi Variable 3.5 mph - N/A   Mostly Cloudy
10:00 PM 62.6 °F 53.6 °F 72% 29.95 in - SSW 6.9 mph - N/A   Clear
10:30 PM 62.6 °F 53.6 °F 72% 29.98 in - SE 5.8 mph - N/A   Clear
11:00 PM 62.6 °F 53.6 °F 72% 29.98 in - SSE 5.8 mph - N/A   Clear
11:30 PM 60.8 °F 55.4 °F 82% 29.98 in - SSE 6.9 mph - N/A   Clear